www.pogodaiklimat.ru

Погода и климат >> Архив погоды >> Россия >> Чукотка >> Омолон


ПОГОДА в Омолоне

АРХИВ ПОГОДЫ в Омолоне

Время (UTC), дата Ветер
(напр.,м/с)
 
Видим.   Явления Облачность Т
(С)
Тd
(С)
f
(%)
Тe
(С)
Тes
(С)
Комфортность P
(гПа)
Po
(гПа)
Тmin
(С)
Tmax
(С)
R
(мм)
S
(см)
09 17.02 В 1
{1}
50 км 4/0
[Ci fib]
-35.9 -39.3 71 -41 -41 опасность
обморожения
1023.5 985.9 -28.3
12 17.02 В 1
{2}
9000 м дымка 3/0
[Ci fib]
-40.5 -45.3 60 -46 -46 опасность
обморожения
1024.5 986.1
15 17.02 ЮВ 1
{2}
9000 м дымка ясно -43.3 -48.2 58 -49 -49 опасность
обморожения
1024.5 985.8
18 17.02 штиль 0
{1}
7000 м пыльная буря ясно -44.6 -48.9 62 -45 -45 опасность
обморожения
1024.5 985.4
21 17.02 штиль 0
{1}
6000 м дымка 3/0
[Ci fib]
-45.1 -50.5 54 -45 -45 опасность
обморожения
1024.3 985.2 -45.3
00 18.02 штиль 0
{1}
9000 м дымка 9/0
[Ac lent Ci fib]
-37.3 -42.2 60 -37 -36 опасность
обморожения
1022.4 984.7
03 18.02 штиль 0
{2}
50 км 3/0
[Ci fib]
-34.2 -40.1 55 -34 -33 опасность
обморожения
1020.8 983.6
06 18.02 штиль 0
{1}
50 км 3/0
[Ci fib]
-34.9 -39.9 60 -35 -35 опасность
обморожения
1020.6 983.3
09 18.02 штиль 0
{1}
8000 м дымка ясно -42.3 -46.9 61 -42 -42 опасность
обморожения
1021.6 983.2 -31.9
12 18.02 штиль 0
{1}
7000 м дымка ясно -43.9 -48.2 62 -44 -44 опасность
обморожения
1022.0 983.2
15 18.02 штиль 0
{1}
7000 м дымка ясно -42.9 -47.5 60 -43 -43 опасность
обморожения
1021.0 982.4
18 18.02 штиль 0
{1}
9000 м дымка 9/0
[Cs]
-40.1 -44.8 61 -40 -40 опасность
обморожения
1019.7 981.6
21 18.02 штиль 0
{1}
18 км слабый снег 10/4 600 м
[Sc Ac trans Cs]
-37.9 -42.3 63 -38 -38 опасность
обморожения
1019.3 981.5 -44.5 0.3 45
00 19.02 СВ 1
{1}
50 км {снег} 10/1 1000 м
[Sc Ac trans Cs]
-35.1 -40.2 59 -40 -39 опасность
обморожения
1018.9 981.6
03 19.02 СВ 1
{2}
50 км 10/0
[Ac trans Ci fib]
-32.4 -38.5 54 -37 -36 опасность
обморожения
1017.9 981.1
06 19.02 штиль 0
{2}
50 км 8/0
[Ac trans Ci fib]
-32.6 -37.7 60 -33 -33 опасность
обморожения
1018.2 981.2
09 19.02 СЗ 1
{1}
50 км 8/0
[Ac trans Ci fib]
-36.0 -40.4 64 -41 -41 опасность
обморожения
1019.4 981.9 -31.0 0.0
12 19.02 штиль 0
{2}
50 км 10/3 1000 м
[Sc Ac trans Ci fib]
-31.5 -35.9 65 -32 -32 опасность
обморожения
1018.7 981.9
15 19.02 СЗ 1
{2}
22 км снежные кристаллы 10/4 1000 м
[Sc Ac trans Cs]
-30.0 -34.5 65 -34 -34 опасность
обморожения
1018.3 981.8
18 19.02 штиль 0
{2}
50 км {снег} 10/4 1000 м
[Sc Ac trans]
-29.5 -33.3 69 -30 -30 1018.4 981.9
21 19.02 С 1
{2}
50 км 10/3 1000 м
[Sc Ac trans Ci fib]
-30.1 -33.9 69 -34 -34 опасность
обморожения
1018.8 982.3 -36.0 0.0 45
00 20.02 СВ 2
{2}
50 км 10/5 1000 м
[Sc Ac trans Ci fib]
-27.9 -32.4 65 -35 -35 опасность
обморожения
1019.3 983.1
03 20.02 С 2
{3}
50 км 10/5 1000 м
[Sc Ac trans Ci fib]
-26.5 -32.0 60 -33 -33 опасность
обморожения
1019.2 983.1
06 20.02 С 1
{3}
50 км {снег} 10/6 1000 м
[Sc Ac trans Cs]
-26.3 -30.9 65 -30 -30 1019.5 983.5
09 20.02 штиль 0
{2}
50 км 10/8 1000 м
[Sc Ac trans Ci fib]
-26.4 -30.2 70 -26 -26 1020.9 984.9 -25.8 0.0
12 20.02 штиль 0
{1}
50 км 10/8 1000 м
[Sc Ac trans Ci fib]
-26.3 -30.1 70 -26 -26 1021.4 985.4
15 20.02 З 1
{1}
50 км 8/0
[Ac trans Ci fib]
-31.8 -34.7 75 -36 -36 опасность
обморожения
1022.7 985.8
18 20.02 штиль 0
{1}
50 км 5/0
[Ac trans Ci fib]
-34.6 -38.1 70 -35 -35 опасность
обморожения
1023.7 986.3
21 20.02 штиль 0
{2}
50 км 5/3 1000 м
[Sc Ac trans Ci fib]
-35.9 -40.0 66 -36 -36 опасность
обморожения
1024.8 987.1 -36.1 45
00 21.02 штиль 0
{1}
50 км 3/3 1000 м
[Sc Ci fib]
-30.5 -35.7 60 -31 -29 опасность
обморожения
1024.6 987.7 -36.6
03 21.02 СВ 1
{2}
50 км 10/0
[Ac trans Ci fib]
-27.7 -33.1 60 -32 -31 опасность
обморожения
1023.4 987.0
06 21.02 ЮВ 1
{2}
50 км 10/0
[Ac trans Ci fib]
-31.0 -35.5 64 -35 -35 опасность
обморожения
1023.5 986.6
09 21.02 штиль 0
{1}
50 км 10/0
[Ac trans Ci fib]
-33.8 -37.5 69 -34 -34 опасность
обморожения
1024.6 987.2 -26.4
12 21.02 штиль 0
{1}
50 км 6/0
[Ci fib]
-35.5 -39.7 65 -36 -36 опасность
обморожения
1024.9 987.2
15 21.02 штиль 0
{1}
50 км 3/0
[Ci fib]
-37.2 -41.5 64 -37 -37 опасность
обморожения
1025.1 987.3
18 21.02 штиль 0
{1}
50 км 3/0
[Ci fib]
-38.2 -42.3 65 -38 -38 опасность
обморожения
1024.8 986.8
21 21.02 В 1
{1}
50 км 3/0
[Ci fib]
-38.9 -43.1 64 -44 -44 опасность
обморожения
1025.4 987.2 -39.3 45
00 22.02 ЮВ 1
{2}
50 км 3/0
[Ci fib]
-33.0 -38.2 59 -37 -36 опасность
обморожения
1024.5 987.3
03 22.02 В 1
{2}
50 км 5/0
[Ci fib]
-29.9 -34.5 64 -34 -33 опасность
обморожения
1022.7 986.1
06 22.02 штиль 0
{2}
50 км 5/0
[Ci fib]
-31.0 -35.5 64 -31 -31 опасность
обморожения
1022.3 985.5
09 22.02 штиль 0
{1}
50 км 3/0
[Ci fib]
-36.8 -41.1 64 -37 -37 опасность
обморожения
1023.8 986.1 -28.3
12 22.02 штиль 0
{1}
50 км 3/0
[Ci fib]
-39.2 -43.8 61 -39 -39 опасность
обморожения
1024.2 986.1
15 22.02 штиль 0
{1}
50 км 3/0
[Ci fib]
-40.5 -45.3 60 -41 -41 опасность
обморожения
1023.3 984.9
18 22.02 штиль 0
{2}
8000 м дымка 3/0
[Ci fib]
-41.6 -46.3 60 -42 -42 опасность
обморожения
1023.0 984.4
21 22.02 штиль 0
{2}
9000 м дымка 3/0
[Ci fib]
-43.0 -47.5 61 -43 -43 опасность
обморожения
1022.0 983.4 -43.2 45
00 23.02 штиль 0
{2}
50 км 3/0
[Ci fib]
-35.0 -40.2 59 -35 -33 опасность
обморожения
1020.1 982.8
03 23.02 С 1
{4}
50 км 3/0
[Ac lent Ci fib]
-29.0 -34.3 60 -33 -32 опасность
обморожения
1015.0 978.7
06 23.02 СЗ 2
{4}
50 км 8/0
[Ac lent Ci sp]
-28.2 -32.8 65 -35 -35 опасность
обморожения
1013.0 977.0
09 23.02 С 2
{5}
50 км 9/3 1000 м
[Sc Ac trans Cs]
-29.7 -33.5 69 -37 -37 опасность
обморожения
1012.0 975.7 -27.1
12 23.02 штиль 0
{4}
50 км 8/0
[Ac trans Ci fib]
-28.8 -31.8 75 -29 -29 1010.7 974.6
15 23.02 штиль 0
{2}
50 км 9/0
[Ac trans Ci sp]
-28.4 -31.5 75 -28 -28 1009.3 973.4
18 23.02 штиль 0
{2}
50 км 9/3 1000 м
[Sc Ac trans Ci sp]
-27.8 -30.9 75 -28 -28 1008.3 972.4
21 23.02 ЮВ 1
{4}
50 км 9/4 1000 м
[Sc Ac lent Ci sp]
-28.4 -31.5 75 -32 -32 опасность
обморожения
1008.1 972.2 -30.6 44
00 24.02 штиль 0
{2}
22 км снежные кристаллы 10/6 1000 м
[Sc Ac trans Cs]
-24.1 -28.1 69 -24 -24 1007.9 972.6
03 24.02 С 1
{3}
17 км слабый снег 10/4 1000 м
[Sc Ac trans Cs]
-20.0 -24.1 70 -23 -23 1006.9 972.2

 

Местоположение метеостанции Омолон (Чукотка, Россия): широта 65.23 долгота 160.50 высота над уровнем моря 260 м.

В архиве по умолчанию представлена погода в Омолоне за последнюю неделю. Архивные данные за месяц целиком и за предыдущие месяцы, начиная с января 2011 года, Вы можете получить, выбрав интересующий диапазон дат из раскрывающегося списка и нажав кнопку "Ввод!".

Внимание! Время в таблицах - всемирное. Для получения местного времени необходимо прибавить поправку, которая в Омолоне равна 12 ч.

Смотрите также архив погоды в соседних городах и на ближайших метеорологических станциях:

Погода в Кегали (Магаданская область, Россия) (112 км)
Погода в Верхне-Пенжино (Камчатский край, Россия) (209 км)
Погода в Баимке (Чукотка, Россия) (222 км)
Погода в Лабазной (Магаданская область, Россия) (235 км)
Погода в Коркодоне (Магаданская область, Россия) (315 км)
Погода в Константиновской (Чукотка, Россия) (326 км)
Погода в Балыгычане (Магаданская область, Россия) (339 км)
Погода в Анюйске (Чукотка, Россия) (350 км)
Погода на Островном (Чукотка, Россия) (358 км)
Погода в Эвенске (Магаданская область, Россия) (374 км)

Пояснения к столбцам:

Ветер - указаны скорость ветра в м/с - средняя за 10 мин, порывы в срок и между сроками (в фигурных скобках) и направление, откуда дует ветер: С - северный, СВ - северо-восточный, В - восточный, ЮВ - юго-восточный, Ю - южный, ЮЗ - юго-западный, З - западный, СЗ - северо-западный.
Видимость - горизонтальная дальность видимости в метрах или километрах. При видимости от 1 до 10 км при отсутствии осадков обычно наблюдается дымка, при ухудшении видимости до 1 км и менее - туман. В сухую погоду видимость может ухудшаться дымом, пылью или мглою.
Явления - указаны атмосферные явления, наблюдавшиеся в срок или в последний час перед сроком; фигурными скобками обозначены явления, наблюдавшиеся между сроками (за 1-3 часа до срока); квадратными скобками обозначены град или гололедные отложения с указанием их диаметра в мм.
Облачность - указаны через наклонную черту общая и нижняя облачность в баллах и высота нижней границы облаков в метрах; квадратными скобками обозначены формы облаков: Ci - перистые, Cs - перисто-слоистые, Cc - перисто-кучевые, Ac - высококучевые, As - высокослоистые, Sc - слоисто-кучевые, Ns - слоисто-дождевые, Cu - кучевые, Cb - кучево-дождевые. Подробнее классификацию облаков см. в Атласе облаков (PDF).
T - Температура воздуха - температура, измеренная на высоте 2 м над землей.
Td - Температура точки росы - температура, при понижении до которой содержащийся в воздухе водяной пар достигнет насыщения.
f - Относительная влажность воздуха - влажноcть воздуха, измеренная на высоте 2 м над землей.
Te - Эффективная температура - температура, которую ощущает одетый по сезону человек в тени. Характеристика душности погоды. При расчете учитывается влияние влажности воздуха и скорости ветра на теплоощущения человека.
Tes - Эффективная температура на солнце - температура, которую ощущает человек, с поправкой на солнечный нагрев. Характеристика знойности погоды. Зависит от высоты солнца над горизонтом, облачности и скорости ветра. Ночью, в пасмурную погоду, а также при ветре 12 м/с и более поправка равна нулю.
P - Атмосферное давление - приведенное к уровню моря атмосферное давление.
Po - Атмосферное давление - измеренное на уровне метеостанции атмосферное давление.
Tmin - Минимальная температура - минимум температуры воздуха на высоте 2 м над землей.
Tmax - Максимальная температура - максимум температуры воздуха на высоте 2 м над землей.
R - Количество осадков - Количество выпавших осадков, мм. При наведении курсора мыши на число - период времени, за который выпало указанное количество осадков.
S - Снежный покров - Высота снежного покрова, см. При наведении курсора мыши на число - состояние снежного покрова и степень покрытия местности в баллах.